Location: Lille
(50.6292°N, 3.0573°E)
Time: 08:55:58
(UTC+01:00)

ISS - Visible Passes

Search period start: 26 March 2019 00:00
Search period end: 05 April 2019 01:00
Orbit: 408 x 411 km, 51.6° (Epoch: 26 March)

Date Brightness Start Highest point End Pass type
(mag) Time Alt. Az. Time Alt. Az. Time Alt. Az.
26 Mar -3.8 21:02:06 10° W 21:05:25 82° N 21:05:59 57° ENE visible
27 Mar -3.9 20:11:25 10° WSW 20:14:43 83° SSE 20:17:28 14° ENE visible
27 Mar -2.3 21:48:05 10° W 21:50:14 37° WNW 21:50:14 37° WNW visible
28 Mar -3.7 20:57:21 10° W 21:00:40 72° N 21:01:37 42° ENE visible
28 Mar -0.6 22:34:01 10° WNW 22:34:23 13° WNW 22:34:23 13° WNW visible
29 Mar -3.7 20:06:37 10° W 20:09:56 76° N 20:12:58 12° E visible
29 Mar -2.8 21:43:17 10° WNW 21:45:43 46° WNW 21:45:43 46° WNW visible
30 Mar -3.8 20:52:34 10° W 20:55:53 77° N 20:57:02 37° E visible
30 Mar -0.8 22:29:13 10° W 22:29:47 14° W 22:29:47 14° W visible
31 Mar -3.6 21:01:49 10° W 21:05:07 72° N 21:08:19 11° E visible
31 Mar -3.0 22:38:26 10° WNW 22:41:04 48° WSW 22:41:04 48° WSW visible
01 Apr -3.9 21:47:41 10° WNW 21:51:00 81° SSW 21:52:20 33° ESE visible
01 Apr -0.9 23:24:33 10° W 23:25:05 13° W 23:25:05 13° W visible
02 Apr -3.8 20:56:55 10° WNW 21:00:15 83° N 21:03:33 10° E visible
02 Apr -2.7 22:33:37 10° W 22:36:21 34° SW 22:36:21 34° SW visible
03 Apr -3.3 21:42:47 10° W 21:46:00 51° SSW 21:47:39 25° SE visible
04 Apr -3.6 20:51:58 10° WNW 20:55:16 71° SSW 20:58:34 10° ESE visible
04 Apr -1.8 22:29:01 10° W 22:31:28 19° SW 22:31:42 19° SSW visible
